Time,TemperatureF,DewpointF,PressureIn,WindDirection,WindDirectionDegrees,WindSpeedMPH,WindSpeedGustMPH,Humidity,HourlyPrecipIn,Conditions,Clouds,dailyrainin,SoftwareType,DateUTC
2013-04-02 00:01:00,50.0,46.0,30.19,SE,124,0.0,2.0,87,-99.99,,,-99.99,,2013-04-02 07:01:00,
2013-04-02 00:11:00,50.0,46.0,30.19,SE,124,0.0,2.0,87,-99.99,,,-99.99,,2013-04-02 07:11:00,
2013-04-02 00:21:00,50.0,46.0,30.19,East,90,1.0,2.0,87,-99.99,,,-99.99,,2013-04-02 07:21:00,
2013-04-02 00:32:00,50.0,46.0,30.19,East,98,1.0,4.0,87,-99.99,,,-99.99,,2013-04-02 07:32:00,
2013-04-02 00:41:00,50.0,46.0,30.19,East,98,1.0,4.0,87,-99.99,,,-99.99,,2013-04-02 07:41:00,
2013-04-02 00:52:00,49.0,46.0,30.19,East,90,0.0,1.0,89,-99.99,,,-99.99,,2013-04-02 07:52:00,
2013-04-02 01:02:00,49.0,46.0,30.20,SE,137,1.0,3.0,89,-99.99,,,-99.99,,2013-04-02 08:02:00,
2013-04-02 01:11:00,49.0,46.0,30.20,SE,137,1.0,3.0,89,-99.99,,,-99.99,,2013-04-02 08:11:00,
2013-04-02 01:21:00,49.0,46.0,30.21,SE,135,1.0,2.0,89,-99.99,,,-99.99,,2013-04-02 08:21:00,
2013-04-02 01:32:00,49.0,46.0,30.21,SE,129,2.0,4.0,89,-99.99,,,-99.99,,2013-04-02 08:32:00,
2013-04-02 01:42:00,49.0,46.0,30.21,SE,129,2.0,4.0,89,-99.99,,,-99.99,,2013-04-02 08:42:00,
2013-04-02 01:52:00,48.0,45.0,30.22,SE,131,1.0,2.0,90,-99.99,,,-99.99,,2013-04-02 08:52:00,
2013-04-02 02:01:00,48.0,45.0,30.22,SE,135,0.0,1.0,89,-99.99,,,-99.99,,2013-04-02 09:01:00,
2013-04-02 02:11:00,48.0,45.0,30.22,SE,135,0.0,1.0,89,-99.99,,,-99.99,,2013-04-02 09:11:00,
2013-04-02 02:22:00,48.0,45.0,30.21,SE,126,2.0,4.0,90,-99.99,,,-99.99,,2013-04-02 09:22:00,
2013-04-02 02:32:00,48.0,45.0,30.22,SE,138,2.0,3.0,90,-99.99,,,-99.99,,2013-04-02 09:32:00,
2013-04-02 02:42:00,48.0,45.0,30.22,SE,138,2.0,3.0,90,-99.99,,,-99.99,,2013-04-02 09:42:00,
2013-04-02 02:52:00,49.0,46.0,30.22,SE,130,2.0,5.0,90,-99.99,,,-99.99,,2013-04-02 09:52:00,
2013-04-02 03:03:00,49.0,46.0,30.22,SE,131,2.0,5.0,89,-99.99,,,-99.99,,2013-04-02 10:03:00,
2013-04-02 03:12:00,49.0,46.0,30.22,SE,131,2.0,5.0,89,-99.99,,,-99.99,,2013-04-02 10:12:00,
2013-04-02 03:22:00,48.0,45.0,30.22,SE,130,2.0,7.0,89,-99.99,,,-99.99,,2013-04-02 10:22:00,
2013-04-02 03:33:00,48.0,45.0,30.23,SE,132,1.0,3.0,89,-99.99,,,-99.99,,2013-04-02 10:33:00,
2013-04-02 03:41:00,48.0,45.0,30.23,SE,132,1.0,3.0,89,-99.99,,,-99.99,,2013-04-02 10:41:00,
2013-04-02 03:52:00,48.0,45.0,30.23,SE,134,0.0,2.0,90,-99.99,,,-99.99,,2013-04-02 10:52:00,
2013-04-02 04:02:00,48.0,45.0,30.23,ESE,114,0.0,3.0,90,-99.99,,,-99.99,,2013-04-02 11:02:00,
2013-04-02 04:11:00,48.0,45.0,30.23,ESE,114,0.0,3.0,90,-99.99,,,-99.99,,2013-04-02 11:11:00,
2013-04-02 04:22:00,49.0,46.0,30.23,ESE,114,1.0,3.0,88,-99.99,,,-99.99,,2013-04-02 11:22:00,
2013-04-02 04:32:00,49.0,46.0,30.23,SE,132,1.0,2.0,88,-99.99,,,-99.99,,2013-04-02 11:32:00,
2013-04-02 04:42:00,49.0,46.0,30.23,SE,132,1.0,2.0,88,-99.99,,,-99.99,,2013-04-02 11:42:00,
2013-04-02 04:52:00,49.0,46.0,30.23,SE,133,2.0,5.0,88,-99.99,,,-99.99,,2013-04-02 11:52:00,
2013-04-02 05:02:00,49.0,46.0,30.23,SE,132,1.0,4.0,88,-99.99,,,-99.99,,2013-04-02 12:02:00,
2013-04-02 05:11:00,49.0,46.0,30.23,SE,132,1.0,4.0,88,-99.99,,,-99.99,,2013-04-02 12:11:00,
2013-04-02 05:21:00,49.0,46.0,30.23,ESE,111,0.0,2.0,88,-99.99,,,-99.99,,2013-04-02 12:21:00,
2013-04-02 05:32:00,49.0,46.0,30.24,SE,134,1.0,3.0,88,-99.99,,,-99.99,,2013-04-02 12:32:00,
2013-04-02 05:41:00,49.0,46.0,30.24,SE,134,1.0,3.0,88,-99.99,,,-99.99,,2013-04-02 12:41:00,
2013-04-02 05:52:00,49.0,46.0,30.23,SE,131,1.0,3.0,88,-99.99,,,-99.99,,2013-04-02 12:52:00,
2013-04-02 06:01:00,49.0,46.0,30.23,East,90,1.0,1.0,89,-99.99,,,-99.99,,2013-04-02 13:01:00,
2013-04-02 06:11:00,49.0,46.0,30.23,ESE,111,1.0,2.0,88,-99.99,,,-99.99,,2013-04-02 13:11:00,
2013-04-02 06:21:00,49.0,46.0,30.23,ESE,111,1.0,2.0,88,-99.99,,,-99.99,,2013-04-02 13:21:00,
2013-04-02 06:31:00,49.0,46.0,30.23,East,90,0.0,1.0,88,-99.99,,,-99.99,,2013-04-02 13:31:00,
2013-04-02 06:42:00,49.0,46.0,30.23,East,90,0.0,1.0,88,-99.99,,,-99.99,,2013-04-02 13:42:00,
2013-04-02 06:52:00,49.0,46.0,30.22,SE,135,1.0,2.0,88,-99.99,,,-99.99,,2013-04-02 13:52:00,
2013-04-02 07:02:00,49.0,45.0,30.22,East,92,1.0,3.0,87,-99.99,,,-99.99,,2013-04-02 14:02:00,
2013-04-02 07:11:00,49.0,45.0,30.22,East,92,1.0,3.0,87,-99.99,,,-99.99,,2013-04-02 14:11:00,
2013-04-02 07:22:00,49.0,45.0,30.22,ESE,110,1.0,4.0,87,-99.99,,,-99.99,,2013-04-02 14:22:00,
2013-04-02 07:32:00,49.0,45.0,30.21,SE,125,1.0,3.0,86,-99.99,,,-99.99,,2013-04-02 14:32:00,
2013-04-02 07:42:00,49.0,45.0,30.21,SE,125,1.0,3.0,86,-99.99,,,-99.99,,2013-04-02 14:42:00,
2013-04-02 07:51:00,50.0,46.0,30.21,East,101,1.0,3.0,85,-99.99,,,-99.99,,2013-04-02 14:51:00,
2013-04-02 08:02:00,50.0,46.0,30.21,East,90,1.0,2.0,85,-99.99,,,-99.99,,2013-04-02 15:02:00,
2013-04-02 08:11:00,50.0,46.0,30.21,East,90,1.0,2.0,85,-99.99,,,-99.99,,2013-04-02 15:11:00,
2013-04-02 08:21:00,50.0,46.0,30.21,East,96,2.0,3.0,85,-99.99,,,-99.99,,2013-04-02 15:21:00,
2013-04-02 08:33:00,51.0,46.0,30.21,ESE,119,2.0,4.0,83,-99.99,,,-99.99,,2013-04-02 15:33:00,
2013-04-02 08:42:00,51.0,46.0,30.21,ESE,119,2.0,4.0,83,-99.99,,,-99.99,,2013-04-02 15:42:00,
2013-04-02 08:53:00,52.0,46.0,30.21,ESE,116,3.0,7.0,81,-99.99,,,-99.99,,2013-04-02 15:53:00,
2013-04-02 09:03:00,51.0,45.0,30.21,ESE,115,2.0,6.0,81,-99.99,,,-99.99,,2013-04-02 16:03:00,
2013-04-02 09:12:00,51.0,45.0,30.21,ESE,115,2.0,6.0,81,-99.99,,,-99.99,,2013-04-02 16:12:00,
2013-04-02 09:23:00,52.0,45.0,30.21,ESE,107,3.0,7.0,78,-99.99,,,-99.99,,2013-04-02 16:23:00,
2013-04-02 09:33:00,52.0,46.0,30.21,SE,140,3.0,6.0,80,-99.99,,,-99.99,,2013-04-02 16:33:00,
2013-04-02 09:42:00,52.0,46.0,30.21,SE,140,3.0,6.0,80,-99.99,,,-99.99,,2013-04-02 16:42:00,
2013-04-02 09:52:00,52.0,46.0,30.22,SE,141,3.0,7.0,79,-99.99,,,-99.99,,2013-04-02 16:52:00,
2013-04-02 10:03:00,53.0,46.0,30.22,SE,136,2.0,4.0,78,-99.99,,,-99.99,,2013-04-02 17:03:00,
2013-04-02 10:22:00,53.0,46.0,30.22,ESE,117,1.0,3.0,77,-99.99,,,-99.99,,2013-04-02 17:22:00,
2013-04-02 10:33:00,54.0,47.0,30.22,SE,135,1.0,3.0,77,-99.99,,,-99.99,,2013-04-02 17:33:00,
2013-04-02 10:42:00,54.0,47.0,30.22,SE,135,1.0,3.0,77,-99.99,,,-99.99,,2013-04-02 17:42:00,
2013-04-02 10:52:00,53.0,47.0,30.22,SE,136,1.0,4.0,79,-99.99,,,-99.99,,2013-04-02 17:52:00,
2013-04-02 11:02:00,53.0,46.0,30.23,East,90,1.0,2.0,77,-99.99,,,-99.99,,2013-04-02 18:02:00,
2013-04-02 11:12:00,53.0,46.0,30.23,East,90,1.0,2.0,77,-99.99,,,-99.99,,2013-04-02 18:12:00,
2013-04-02 11:22:00,52.0,46.0,30.22,NNE,12,1.0,2.0,81,-99.99,,,-99.99,,2013-04-02 18:22:00,
2013-04-02 11:33:00,52.0,46.0,30.22,West,270,0.0,1.0,80,-99.99,,,-99.99,,2013-04-02 18:33:00,
2013-04-02 11:42:00,52.0,46.0,30.22,West,270,0.0,1.0,80,-99.99,,,-99.99,,2013-04-02 18:42:00,
2013-04-02 11:52:00,52.0,46.0,30.22,SE,134,0.0,1.0,80,-99.99,,,-99.99,,2013-04-02 18:52:00,
2013-04-02 12:02:00,53.0,46.0,30.23,SE,135,0.0,1.0,78,-99.99,,,-99.99,,2013-04-02 19:02:00,
2013-04-02 12:11:00,53.0,46.0,30.23,SE,135,0.0,1.0,78,-99.99,,,-99.99,,2013-04-02 19:11:00,
2013-04-02 12:21:00,54.0,47.0,30.24,SE,142,2.0,4.0,76,-99.99,,,-99.99,,2013-04-02 19:21:00,
2013-04-02 12:32:00,53.0,46.0,30.23,SE,135,0.0,3.0,78,-99.99,,,-99.99,,2013-04-02 19:32:00,
2013-04-02 12:42:00,53.0,46.0,30.23,SE,135,0.0,3.0,78,-99.99,,,-99.99,,2013-04-02 19:42:00,
2013-04-02 12:54:00,53.0,46.0,30.22,ENE,78,1.0,4.0,78,-99.99,,,-99.99,,2013-04-02 19:54:00,
2013-04-02 13:02:00,53.0,46.0,30.22,SE,135,1.0,2.0,77,-99.99,,,-99.99,,2013-04-02 20:02:00,
2013-04-02 13:11:00,53.0,46.0,30.22,SE,135,1.0,2.0,77,-99.99,,,-99.99,,2013-04-02 20:11:00,
2013-04-02 13:21:00,54.0,47.0,30.22,SE,136,0.0,2.0,76,-99.99,,,-99.99,,2013-04-02 20:21:00,
2013-04-02 13:32:00,54.0,47.0,30.23,SSE,158,0.0,1.0,78,-99.99,,,-99.99,,2013-04-02 20:32:00,
2013-04-02 13:41:00,54.0,47.0,30.23,SSE,158,0.0,1.0,78,-99.99,,,-99.99,,2013-04-02 20:41:00,
2013-04-02 13:53:00,54.0,47.0,30.23,SSE,158,0.0,1.0,78,-99.99,,,-99.99,,2013-04-02 20:53:00,
2013-04-02 14:01:00,54.0,47.0,30.23,SE,134,1.0,2.0,78,-99.99,,,-99.99,,2013-04-02 21:01:00,
2013-04-02 14:11:00,54.0,47.0,30.23,SE,134,1.0,2.0,78,-99.99,,,-99.99,,2013-04-02 21:11:00,
2013-04-02 14:22:00,54.0,46.0,30.23,East,90,0.0,0.0,75,-99.99,,,-99.99,,2013-04-02 21:22:00,
2013-04-02 14:32:00,53.0,46.0,30.24,North,3,1.0,3.0,76,-99.99,,,-99.99,,2013-04-02 21:32:00,
2013-04-02 14:42:00,53.0,46.0,30.24,North,3,1.0,3.0,76,-99.99,,,-99.99,,2013-04-02 21:42:00,
2013-04-02 14:53:00,53.0,46.0,30.24,SE,137,1.0,4.0,76,-99.99,,,-99.99,,2013-04-02 21:53:00,
2013-04-02 15:03:00,54.0,46.0,30.23,WNW,301,2.0,5.0,74,-99.99,,,-99.99,,2013-04-02 22:03:00,
2013-04-02 15:12:00,54.0,46.0,30.23,WNW,301,2.0,5.0,74,-99.99,,,-99.99,,2013-04-02 22:12:00,
2013-04-02 15:22:00,53.0,45.0,30.24,SE,132,1.0,3.0,73,-99.99,,,-99.99,,2013-04-02 22:22:00,
2013-04-02 15:33:00,54.0,46.0,30.24,SSE,158,0.0,1.0,74,-99.99,,,-99.99,,2013-04-02 22:33:00,
2013-04-02 15:42:00,54.0,46.0,30.24,SSE,158,0.0,1.0,74,-99.99,,,-99.99,,2013-04-02 22:42:00,
2013-04-02 15:52:00,54.0,45.0,30.24,NW,316,2.0,4.0,71,-99.99,,,-99.99,,2013-04-02 22:52:00,
2013-04-02 16:02:00,56.0,47.0,30.24,ESE,120,1.0,5.0,71,-99.99,,,-99.99,,2013-04-02 23:02:00,
2013-04-02 16:11:00,55.0,45.0,30.24,NNE,14,2.0,5.0,70,-99.99,,,-99.99,,2013-04-02 23:11:00,
2013-04-02 16:22:00,55.0,45.0,30.24,NNE,14,2.0,5.0,70,-99.99,,,-99.99,,2013-04-02 23:22:00,
2013-04-02 16:32:00,57.0,46.0,30.24,SE,126,2.0,2.0,66,-99.99,,,-99.99,,2013-04-02 23:32:00,
2013-04-02 16:42:00,57.0,46.0,30.24,SE,126,2.0,2.0,66,-99.99,,,-99.99,,2013-04-02 23:42:00,
2013-04-02 16:52:00,56.0,46.0,30.24,SE,138,1.0,4.0,69,-99.99,,,-99.99,,2013-04-02 23:52:00,
2013-04-02 17:02:00,55.0,46.0,30.23,SE,136,1.0,3.0,72,-99.99,,,-99.99,,2013-04-03 00:02:00,
2013-04-02 17:12:00,55.0,46.0,30.23,SE,136,1.0,3.0,72,-99.99,,,-99.99,,2013-04-03 00:12:00,
2013-04-02 17:22:00,54.0,46.0,30.24,SE,139,1.0,7.0,73,-99.99,,,-99.99,,2013-04-03 00:22:00,
2013-04-02 17:32:00,54.0,45.0,30.23,SSE,147,2.0,7.0,71,-99.99,,,-99.99,,2013-04-03 00:32:00,
2013-04-02 17:43:00,54.0,45.0,30.23,SSE,147,2.0,7.0,71,-99.99,,,-99.99,,2013-04-03 00:43:00,
2013-04-02 17:52:00,54.0,45.0,30.24,West,274,1.0,2.0,72,-99.99,,,-99.99,,2013-04-03 00:52:00,
2013-04-02 18:02:00,56.0,46.0,30.23,SE,127,1.0,3.0,68,-99.99,,,-99.99,,2013-04-03 01:02:00,
2013-04-02 18:11:00,56.0,46.0,30.23,SE,127,1.0,3.0,68,-99.99,,,-99.99,,2013-04-03 01:11:00,
2013-04-02 18:21:00,57.0,46.0,30.23,SE,139,1.0,4.0,67,-99.99,,,-99.99,,2013-04-03 01:21:00,
2013-04-02 18:33:00,54.0,45.0,30.23,SSE,150,1.0,4.0,72,-99.99,,,-99.99,,2013-04-03 01:33:00,
2013-04-02 18:41:00,54.0,45.0,30.23,SSE,150,1.0,4.0,72,-99.99,,,-99.99,,2013-04-03 01:41:00,
2013-04-02 18:53:00,52.0,45.0,30.23,SE,141,0.0,3.0,76,-99.99,,,-99.99,,2013-04-03 01:53:00,
2013-04-02 19:02:00,52.0,44.0,30.23,SE,124,0.0,1.0,75,-99.99,,,-99.99,,2013-04-03 02:02:00,
2013-04-02 19:11:00,52.0,44.0,30.23,SE,124,0.0,1.0,75,-99.99,,,-99.99,,2013-04-03 02:11:00,
2013-04-02 19:22:00,52.0,44.0,30.22,SE,135,0.0,1.0,75,-99.99,,,-99.99,,2013-04-03 02:22:00,
2013-04-02 19:33:00,52.0,45.0,30.22,SE,135,0.0,0.0,76,-99.99,,,-99.99,,2013-04-03 02:33:00,
2013-04-02 19:42:00,52.0,45.0,30.22,SE,135,0.0,0.0,76,-99.99,,,-99.99,,2013-04-03 02:42:00,
2013-04-02 19:52:00,51.0,44.0,30.22,SE,135,0.0,0.0,77,-99.99,,,-99.99,,2013-04-03 02:52:00,
2013-04-02 20:03:00,51.0,43.0,30.22,SE,135,0.0,1.0,75,-99.99,,,-99.99,,2013-04-03 03:03:00,
2013-04-02 20:12:00,51.0,43.0,30.22,SE,135,0.0,1.0,75,-99.99,,,-99.99,,2013-04-03 03:12:00,
2013-04-02 20:22:00,51.0,44.0,30.22,SE,135,0.0,0.0,77,-99.99,,,-99.99,,2013-04-03 03:22:00,
2013-04-02 20:34:00,50.0,43.0,30.22,SE,135,0.0,0.0,78,-99.99,,,-99.99,,2013-04-03 03:34:00,
2013-04-02 20:42:00,50.0,43.0,30.22,SE,135,0.0,0.0,78,-99.99,,,-99.99,,2013-04-03 03:42:00,
2013-04-02 20:53:00,50.0,44.0,30.22,SE,135,0.0,0.0,80,-99.99,,,-99.99,,2013-04-03 03:53:00,
2013-04-02 21:02:00,50.0,44.0,30.23,SE,135,0.0,0.0,81,-99.99,,,-99.99,,2013-04-03 04:02:00,
2013-04-02 21:12:00,50.0,44.0,30.23,SE,135,0.0,0.0,81,-99.99,,,-99.99,,2013-04-03 04:12:00,
2013-04-02 21:23:00,50.0,44.0,30.23,SE,135,0.0,0.0,81,-99.99,,,-99.99,,2013-04-03 04:23:00,
2013-04-02 21:32:00,50.0,44.0,30.23,SE,135,0.0,0.0,81,-99.99,,,-99.99,,2013-04-03 04:32:00,
2013-04-02 21:42:00,50.0,44.0,30.23,SE,135,0.0,0.0,81,-99.99,,,-99.99,,2013-04-03 04:42:00,
2013-04-02 21:53:00,50.0,44.0,30.23,SE,135,0.0,1.0,80,-99.99,,,-99.99,,2013-04-03 04:53:00,
2013-04-02 22:02:00,49.0,44.0,30.24,SE,135,0.0,0.0,82,-99.99,,,-99.99,,2013-04-03 05:02:00,
2013-04-02 22:12:00,49.0,44.0,30.24,SE,135,0.0,0.0,82,-99.99,,,-99.99,,2013-04-03 05:12:00,
2013-04-02 22:22:00,50.0,44.0,30.24,ESE,106,1.0,2.0,80,-99.99,,,-99.99,,2013-04-03 05:22:00,
2013-04-02 22:32:00,49.0,44.0,30.24,North,0,0.0,1.0,82,-99.99,,,-99.99,,2013-04-03 05:32:00,
2013-04-02 22:41:00,49.0,44.0,30.24,North,0,0.0,1.0,82,-99.99,,,-99.99,,2013-04-03 05:41:00,
2013-04-02 22:52:00,49.0,44.0,30.24,NNE,17,0.0,2.0,82,-99.99,,,-99.99,,2013-04-03 05:52:00,
2013-04-02 23:02:00,49.0,43.0,30.24,ENE,68,0.0,0.0,81,-99.99,,,-99.99,,2013-04-03 06:02:00,
2013-04-02 23:12:00,49.0,43.0,30.24,ENE,68,0.0,0.0,81,-99.99,,,-99.99,,2013-04-03 06:12:00,
2013-04-02 23:21:00,49.0,44.0,30.24,ENE,68,0.0,0.0,83,-99.99,,,-99.99,,2013-04-03 06:21:00,
2013-04-02 23:31:00,49.0,44.0,30.24,ENE,68,0.0,0.0,82,-99.99,,,-99.99,,2013-04-03 06:31:00,
2013-04-02 23:42:00,49.0,44.0,30.24,ENE,68,0.0,0.0,82,-99.99,,,-99.99,,2013-04-03 06:42:00,
2013-04-02 23:52:00,48.0,43.0,30.24,ENE,68,0.0,0.0,84,-99.99,,,-99.99,,2013-04-03 06:52:00,